RH
35 33 20 20 17 33 18 14 12 11 11 10 10 4 14 48 64 62 52 71 75 40 14 12 14 17 17 16 15 15 16 16 17 18 20 21 20 20 20 21 21 21 28
33 25 19 36 22 28 17 14 12 11 10 9 9 4 40 52 74 68 82 81 60 21 13 15 18 18 16 17 18 22 23 25 27 28 27 26 25 26 28 29 29 29 28
36 23 20 40 23 27 16 13 13 10 8 7 6 17 43 54 62 93 90 72 29 15 14 18 18 17 20 23 25 28 28 27 24 20 19 19 20 20 21 21 22 22 22
35 22 21 46 23 26 16 14 10 9 21 39 30 44 52 67 90 88 72 37 16 16 19 18 18 20 23 26 26 25 22 21 22 23 22 22 22 23 22 21 21 20 20
32 23 22 45 50 35 16 13 12 9 73 73 73 77 74 78 81 77 63 21 18 21 20 19 21 24 26 24 21 20 23 23 23 23 23 23 22 20 18 17 17 18 19
26 26 26 54 64 50 16 12 13 9 54 73 70 80 82 73 70 68 27 17 22 22 23 26 27 26 23 22 23 22 21 22 22 23 23 25 24 23 21 20 18 16 16
30 30 35 61 68 41 15 16 8 10 31 70 74 84 76 67 56 21 18 23 22 25 28 31 27 28 29 28 25 25 22 21 22 23 23 25 27 25 22 20 18 15 15
73 72 57 64 64 29 13 14 10 10 21 63 77 84 55 17 13 19 24 24 26 30 29 27 32 36 38 38 34 29 25 21 20 20 22 22 23 24 24 19 16 14 14
67 73 66 72 68 29 14 12 12 10 18 32 54 54 14 14 22 24 24 28 29 27 30 38 42 43 39 39 37 32 27 22 20 18 17 16 15 17 18 19 20 21 21
70 79 61 75 74 35 18 16 16 14 15 20 26 16 19 25 24 25 28 29 34 39 42 46 46 45 43 41 38 33 26 23 20 18 15 13 14 17 20 31 28 29 34
96 88 72 78 80 22 36 19 18 16 16 16 19 24 25 26 28 29 33 38 41 44 47 45 45 44 42 39 37 35 27 21 19 16 14 17 31 34 32 34 34 34 42
98 93 84 86 79 22 36 21 22 24 24 24 25 25 27 28 33 37 40 44 47 48 48 46 44 41 41 39 36 28 22 20 17 16 18 24 29 30 31 36 39 31 27
100 99 90 88 76 23 22 35 28 26 25 26 27 28 32 37 42 46 48 49 50 50 48 45 43 40 38 35 32 26 21 19 20 21 22 26 28 26 21 18 17 20 22
99 100 87 95 59 26 25 34 35 26 26 28 32 38 43 46 48 49 50 51 50 49 46 44 40 37 35 32 29 28 29 26 23 25 28 28 23 18 16 15 13 12 14
93 98 100 99 51 30 30 30 29 31 31 36 41 45 47 48 49 50 50 50 50 47 45 42 41 35 32 32 32 34 32 27 27 29 28 25 22 20 20 19 16 14 11
96 100 100 99 57 36 34 31 30 32 42 42 44 46 48 48 49 50 50 49 47 45 43 42 42 36 34 35 36 34 32 28 30 29 27 26 24 23 21 18 16 15 13
68 94 97 88 61 49 41 38 35 36 41 49 48 48 48 48 48 49 49 47 45 44 43 42 42 39 35 37 38 36 30 29 30 30 28 27 27 26 25 22 20 16 14
76 93 97 98 75 71 64 41 40 40 43 47 49 49 49 49 50 48 46 44 44 46 46 42 41 44 36 38 39 38 32 30 31 30 30 31 30 28 26 25 23 20 15
78 73 87 97 91 85 78 62 63 46 45 46 49 51 52 51 51 50 47 44 45 49 50 45 41 44 39 38 40 42 32 31 33 33 35 34 34 33 31 28 25 22 19
91 100 100 98 99 96 94 85 85 76 71 53 50 52 53 51 52 50 51 54 49 54 54 50 45 44 45 39 41 43 36 32 34 36 36 36 40 41 36 32 30 27 24
97 94 97 100 92 92 78 76 85 81 92 96 75 85 82 78 75 60 69 78 69 62 64 56 51 44 46 44 42 45 40 35 39 39 39 44 54 54 48 39 34 31 28
99 95 98 99 98 99 94 82 85 88 88 86 84 87 88 89 99 87 84 93 80 79 66 59 54 48 49 49 48 50 44 42 42 42 44 50 57 62 64 55 47 36 31
99 100 99 100 91 83 92 94 97 88 76 73 79 82 84 90 85 95 90 96 98 99 98 92 75 67 63 69 71 58 49 47 45 47 52 54 58 62 65 61 59 48 33
94 90 96 94 91 99 99 96 96 97 96 96 98 89 94 89 86 84 90 94 100 100 99 100 98 88 85 87 83 80 63 62 69 79 62 63 56 66 68 67 60 47 34
92 97 93 88 95 90 72 88 90 98 99 100 98 97 100 100 94 98 100 98 99 100 99 99 99 93 92 92 91 93 94 86 74 82 82 70 67 70 67 66 62 44 31
86 80 75 76 80 82 87 93 95 97 99 90 99 94 99 98 98 98 100 98 97 98 98 97 99 100 100 99 100 100 100 100 98 94 71 79 77 73 71 69 66 60 34
Wind_Speed
15 18 16 12 11 9 9 8 8 8 9 10 12 14 19 21 19 15 15 13 12 9 9 9 9 9 9 10 11 11 11 11 11 11 11 11 11 11 10 10 9 9 9
13 17 16 13 13 11 9 8 8 9 10 12 14 18 22 22 18 17 16 15 11 10 10 10 10 10 11 11 11 12 11 11 11 10 10 10 9 9 8 8 8 8 8
16 15 17 15 15 13 11 10 9 10 11 15 18 21 22 21 19 18 18 14 12 11 11 11 11 11 11 11 10 10 9 9 9 9 9 9 9 9 9 8 8 8 8
17 18 17 17 16 14 13 12 11 13 19 18 18 20 20 20 20 19 16 14 14 13 12 11 11 11 10 9 8 8 8 8 9 9 9 9 9 9 9 9 9 9 9
21 20 18 17 16 15 14 14 15 18 21 20 19 19 20 20 19 17 14 15 15 14 13 12 11 9 8 7 7 7 8 8 8 8 8 8 9 9 10 9 9 9 10
25 23 19 17 17 17 17 17 19 22 26 23 22 22 21 19 18 17 17 18 17 16 14 12 10 8 7 7 7 7 7 7 6 7 7 7 8 9 10 9 10 10 10
26 23 21 19 20 19 19 20 21 23 29 27 25 23 21 19 18 19 20 19 17 16 13 11 10 9 7 7 6 6 5 5 5 5 5 6 7 8 9 10 11 11 11
24 24 23 22 21 20 22 23 23 24 30 30 27 24 20 20 22 22 21 20 18 15 13 12 10 8 6 5 4 4 4 4 4 4 5 5 7 8 9 10 11 12 13
26 25 24 25 24 23 24 25 25 25 28 30 29 25 23 24 24 23 22 19 16 15 13 11 8 5 3 2 2 3 3 3 3 3 4 6 7 8 9 11 12 13 13
28 28 28 27 26 25 27 27 27 27 28 29 28 27 27 26 25 23 20 19 16 14 11 8 6 4 1 1 2 3 3 3 3 4 5 6 7 8 8 11 12 13 13
34 29 30 30 27 29 27 29 30 30 30 30 30 29 28 27 25 23 21 18 15 12 9 7 5 3 3 3 4 5 4 4 4 4 5 7 8 9 10 13 14 15 14
26 31 32 32 30 31 31 32 32 32 32 32 32 32 29 27 26 24 21 17 14 11 8 7 5 5 5 5 5 5 6 5 5 5 7 8 9 11 12 13 14 15 14
18 33 35 33 33 34 34 33 34 34 33 33 32 31 30 28 26 22 18 15 13 11 10 8 7 7 6 6 6 6 5 6 7 7 8 8 10 12 13 13 15 17 18
24 35 37 34 35 35 36 35 34 35 35 34 34 33 30 27 23 20 18 16 14 12 11 10 9 8 7 7 7 6 6 7 7 7 9 10 11 13 14 15 16 16 16
26 22 34 32 34 36 37 37 36 36 37 36 35 32 29 27 24 22 19 17 15 15 14 13 11 10 9 8 8 8 7 8 8 8 10 11 12 13 15 17 18 17 17
31 23 23 35 33 34 35 36 37 38 37 36 34 32 29 27 25 22 21 19 18 17 16 15 15 13 12 10 10 10 9 9 9 10 11 12 13 14 15 16 17 17 17
23 30 27 36 37 32 32 34 35 36 36 36 34 33 31 29 27 25 23 21 19 19 18 17 17 16 15 13 12 12 11 11 11 11 11 12 14 14 16 17 18 18 19
17 33 31 33 35 31 30 33 33 34 35 35 34 31 30 29 28 26 24 23 22 21 20 20 20 20 19 17 15 15 13 12 13 12 12 12 14 15 16 17 18 18 19
18 29 35 40 36 30 25 29 30 32 32 34 33 31 30 31 30 28 26 25 25 24 23 23 24 24 23 21 19 17 16 15 15 14 13 13 14 15 16 18 18 18 18
5 31 28 38 37 31 23 24 26 30 28 31 28 28 29 31 32 32 28 28 29 27 26 25 26 27 26 25 22 21 18 18 17 15 15 15 15 17 19 20 20 20 20
13 14 37 37 34 37 39 31 27 31 28 26 27 27 27 29 29 31 28 29 28 30 29 28 28 30 30 27 27 24 21 20 18 17 16 15 17 18 21 21 22 22 22
24 17 17 14 15 22 17 46 33 37 37 39 31 35 35 34 31 33 30 29 26 27 29 30 30 31 31 31 30 28 22 21 19 17 18 18 20 23 26 24 25 25 24
13 24 23 19 8 3 6 8 32 39 38 52 44 43 46 46 40 38 37 35 32 30 29 28 30 30 29 28 29 28 23 22 22 21 20 23 26 29 27 26 26 27 28
4 5 8 10 14 19 17 18 13 25 30 33 45 50 44 60 54 49 51 43 42 29 29 29 30 31 30 31 30 29 23 22 22 25 28 28 30 31 31 29 30 28 28
8 5 8 12 10 11 12 18 19 23 17 31 27 28 34 29 55 60 48 40 21 29 30 40 31 30 33 33 34 34 38 36 29 30 34 36 33 33 33 31 31 31 29
10 10 10 11 12 12 14 14 16 19 17 14 11 17 14 15 24 18 34 17 21 33 34 32 30 31 33 36 36 34 41 46 37 31 32 33 37 38 34 34 35 34 33
Wind_Direction
239 235 227 227 208 206 204 195 189 185 180 180 177 176 167 166 164 154 157 156 149 138 129 123 115 118 115 111 106 102 98 93 91 88 84 79 74 71 67 61 60 55 54
238 229 222 213 198 203 200 193 186 180 174 174 172 166 161 164 159 155 154 153 147 139 134 124 126 123 117 111 107 102 99 96 92 87 80 73 69 66 63 59 51 43 40
223 216 215 206 198 199 192 191 186 173 164 154 155 156 161 165 162 158 153 151 146 145 139 137 134 126 120 115 109 105 101 97 90 84 77 72 64 59 54 48 41 33 28
217 206 212 205 200 199 190 185 177 166 147 146 151 155 160 161 160 156 156 153 150 149 146 144 138 131 125 116 109 103 97 90 86 83 76 69 61 53 46 37 31 24 19
202 200 208 203 195 194 188 183 173 167 151 155 157 160 160 161 166 169 167 159 153 150 149 147 141 132 124 117 114 109 102 93 85 76 67 59 54 47 41 34 27 19 13
193 192 197 195 193 193 186 182 174 170 162 163 166 166 164 167 169 169 165 159 156 154 151 146 139 133 127 120 111 101 96 93 87 80 74 60 48 37 30 23 19 13 9
190 190 192 190 198 196 186 182 176 173 171 167 171 171 169 168 173 166 162 160 158 155 152 147 139 132 125 116 104 94 85 88 90 79 60 49 39 28 20 15 9 2 358
190 187 189 190 201 198 186 183 179 177 176 174 173 171 173 171 167 163 163 161 159 159 155 147 139 133 128 114 98 83 80 78 65 55 46 31 19 13 9 6 357 351 351
194 192 193 194 197 197 189 185 181 178 177 180 182 181 172 167 164 165 164 162 162 157 150 143 140 140 136 110 71 39 40 44 45 34 17 7 359 357 360 356 348 344 343
200 196 195 198 200 196 189 185 182 178 177 176 176 174 168 166 165 165 164 160 156 153 149 151 157 159 181 301 326 348 357 359 357 353 351 346 345 344 340 343 338 337 338
199 199 198 201 200 196 189 184 180 176 174 173 170 169 167 166 165 164 161 159 158 158 164 170 184 210 238 270 298 310 320 325 332 336 339 338 337 338 334 333 334 336 335
196 205 200 203 202 195 187 184 180 176 173 172 170 169 169 167 165 163 162 161 165 173 186 201 213 232 254 267 280 295 306 313 319 328 329 329 329 330 333 332 325 326 321
248 190 202 202 203 194 188 185 183 178 175 172 171 170 168 167 167 168 171 177 186 197 208 220 231 240 250 263 274 287 298 307 311 315 320 324 323 324 326 323 320 320 321
235 190 189 202 201 193 188 186 185 180 177 175 173 172 173 175 177 182 191 198 207 217 228 235 241 247 253 259 262 272 284 292 298 310 316 319 320 320 324 324 317 317 313
185 177 176 200 199 192 189 188 187 181 180 179 179 180 183 188 193 199 205 212 223 231 235 240 243 248 252 256 261 268 277 286 295 301 307 313 316 322 322 322 321 321 315
227 206 172 192 195 192 192 191 190 186 185 187 188 191 194 199 204 209 217 223 231 238 241 242 241 243 247 253 260 265 270 277 285 295 304 310 315 320 318 318 319 318 314
265 235 184 184 183 186 192 194 195 195 194 196 198 199 202 207 212 216 223 230 237 242 244 245 245 246 247 252 258 264 269 277 283 290 296 302 308 311 315 318 317 314 311
220 228 244 181 189 180 188 193 196 201 204 206 207 210 213 216 218 224 229 236 240 244 247 247 245 245 246 250 257 265 270 272 275 282 288 297 306 313 315 313 312 311 309
238 220 208 195 186 187 193 200 200 203 208 213 215 219 223 226 229 234 240 243 245 248 249 249 248 246 247 250 255 263 266 266 271 276 284 295 305 311 312 311 310 308 307
211 177 191 186 185 189 204 213 213 212 214 216 216 221 228 232 236 238 242 249 251 252 251 249 250 248 248 249 254 260 264 264 268 278 285 297 310 314 315 313 310 310 308
178 134 200 196 198 202 223 233 225 228 222 222 225 229 232 236 240 243 244 253 255 253 254 252 249 248 248 248 250 256 258 260 267 274 281 291 303 312 314 311 307 305 303
201 173 174 160 185 194 209 219 232 232 235 226 245 238 237 238 240 240 239 258 256 256 252 252 251 250 249 249 250 252 255 258 263 269 278 290 295 304 311 308 309 306 301
202 201 199 213 197 210 217 244 218 227 232 222 237 241 248 247 238 240 238 245 245 255 252 257 250 248 248 248 251 254 254 258 261 266 279 287 294 304 306 301 305 302 299
250 230 223 212 236 235 240 244 253 230 222 234 237 237 247 251 241 238 239 256 266 242 241 250 254 246 238 243 246 246 247 257 272 286 280 285 290 296 298 297 299 299 295
222 214 232 244 248 242 259 254 266 261 285 234 232 255 241 258 237 240 245 256 253 242 236 249 241 235 235 235 247 252 256 254 269 280 288 290 293 295 295 295 300 301 297
209 231 238 245 256 261 253 254 245 253 256 272 246 286 269 262 250 238 241 265 266 251 246 245 250 242 236 238 240 251 261 262 272 271 277 284 290 293 292 295 297 299 299